Карточка аэропорта URKK

Внимание!
Информация на этой странице в стадии наполнения.
Если вы не увидели какой-то информации, или заметили неточность - пожалуйста сообщите нам!
Спасибо!
Команда RU-STAFF
Название аэропортаПашковский
Название аэропорта (англ.)Pashkovskiy
Превышение120 ft. (36.6 m.)
Координаты45°2.0820000000001', 39°10.218'
Высота перехода4000 ft
Эшелон переходаFL060
Коды ответчика1030-1037
Зона ОрВДРостов-на-Дону РПИ (URRV)
Данные METARURKK 170200Z 33002MPS 1600 0350SE R23L/P2000U PRFG BKN010 10/10 Q1013 R23L/CLRD70 TEMPO 0200 FG VV001 RMK QFE756
Проноз погоды (TAF)URKK 170137Z 1702/1724 25003MPS 0200 FG VV002 TEMPO 1702/1706 2000 BR BKN005 FM170600 32003MPS 6000 BKN016CB PROB40 TEMPO 1706/1724 -TSRA
NOTAMshow/hide NOTAM
AWOS   TABLE

Информация о ВПП

ВПП Длина ВПП (м.) Покрытие Курс ВПП Частота ILS
05L2200Асфальтобетон46 
23R2200Асфальтобетон226 
05R3000Железобетон46 
23L3000Железобетон226 

Диспетчерские позиции

Позывной Наименование органа УВД Частота
URKK_APPКраснодар-Подход129.6
URKK_R_APPКраснодар-Круг121.3
URKK_TWRКраснодар-Вышка118.2
URKK_GNDКраснодар-Руление119.0



Спутниковое изображение